Location: ??????
(41.3164°N, 22.6615°E)
Time: 01:31:37
(UTC+00:00)

UWE-3 - Pass Details

Date: 03 July 2022
Orbit: 583 x 677 km, 97.7° (Epoch: 16 August)

Event Time Altitude Azimuth Distance (km) Brightness Sun altitude
Rises 01:17:12 0° 22° (NNE) 2,906 ? -15.4°
Reaches altitude 10° 01:19:32 10° 32° (NNE) 2,011 ? -15.1°
Maximum altitude 01:23:32 34° 97° (E) 1,059 ? -14.6°
Drops below altitude 10° 01:27:36 10° 163° (SSE) 2,050 ? -14.1°
Enters shadow 01:28:28 - 167° (SSE) 2,376 ? -14.0°
